Theta_e
290 290 290 289 289 289 288 288 288 287 287 287 287 286 286 286 286 286 286 286 286 286 286 286 286 287 287 287 287 287 287 287 287 287 287 287 287 287 287 288 288 288 288 288 288 288 288 288 288 288 288 288 288 288 288 288 288 288 288 288 288 288 289 289 289 290 290 290 290 290 290 290 291 291 291 291 291 291 291 291 291 291 291 291 292 292
290 289 289 289 289 288 288 287 287 287 287 286 286 286 286 286 286 286 286 286 286 286 286 286 286 287 287 287 287 287 287 287 287 287 287 287 287 288 288 288 288 288 288 288 288 288 288 288 288 288 287 287 287 287 287 287 288 288 288 288 288 288 288 288 289 289 289 289 289 289 289 290 290 290 290 290 290 290 290 290 291 291 291 291 291 291
289 289 289 288 288 288 287 287 287 286 286 286 286 286 286 286 286 286 286 286 286 286 286 286 287 287 287 287 287 287 287 287 287 287 287 288 288 288 288 288 288 288 288 288 287 287 287 287 287 287 287 287 287 287 288 288 288 288 288 288 288 288 288 288 288 288 288 288 288 289 289 289 289 289 289 290 290 290 290 290 290 290 291 291 291 291
289 289 288 288 287 287 287 286 286 286 286 286 286 286 286 286 286 286 286 286 286 286 286 286 287 287 287 287 287 287 287 287 288 288 288 288 288 288 288 287 287 287 287 287 287 287 287 287 287 287 287 287 287 287 288 288 288 288 287 287 287 287 288 288 288 288 288 288 288 288 288 288 289 289 289 289 289 289 289 289 290 290 290 290 290 290
288 288 288 287 287 287 286 286 286 286 286 286 285 285 285 285 285 285 285 286 286 286 286 287 287 287 287 287 288 288 288 288 288 288 288 288 288 287 287 287 287 287 287 287 287 287 287 287 287 287 287 287 287 288 288 288 288 288 287 287 287 287 287 287 288 288 288 288 288 288 288 288 288 288 288 288 288 288 289 289 289 289 289 290 290 290
288 288 287 287 287 286 286 286 286 286 285 285 285 285 285 285 285 285 285 285 286 286 286 287 287 287 287 287 288 288 288 288 288 288 288 288 288 287 287 287 287 287 287 287 287 287 287 287 287 287 287 287 288 288 288 288 288 287 287 287 287 287 287 287 287 287 287 287 287 287 287 288 288 288 288 288 288 288 288 288 288 288 289 289 289 290
288 287 287 287 286 286 286 286 286 285 285 285 285 285 285 285 285 285 285 285 286 286 286 287 287 287 287 287 288 288 288 288 288 288 288 288 288 288 288 288 288 288 288 288 288 288 288 288 288 287 287 287 287 288 287 288 288 288 287 287 287 287 287 287 287 287 287 287 287 287 287 287 287 287 287 287 288 288 288 288 288 288 288 289 289 289
287 287 287 286 286 286 286 286 285 285 285 285 285 285 285 285 285 285 285 285 286 286 286 287 287 287 287 287 287 287 288 288 288 288 288 288 288 288 288 288 288 288 288 288 288 288 288 288 288 287 287 287 287 287 287 287 287 287 287 287 287 287 287 287 287 287 287 287 287 287 287 287 287 287 287 287 287 287 287 287 288 288 288 289 289 289
287 287 286 286 286 286 286 285 285 285 285 285 285 285 285 285 285 285 285 285 285 286 286 286 287 287 287 288 288 287 287 287 288 288 288 288 288 288 288 288 288 288 288 288 288 288 288 288 288 287 287 287 287 287 287 287 287 287 287 287 287 287 287 287 287 287 287 286 286 286 286 286 286 287 287 287 287 287 287 287 287 288 288 288 289 289
287 286 286 286 286 286 285 285 285 285 285 285 285 284 284 284 284 284 284 285 285 285 286 286 287 287 287 288 288 287 287 287 287 287 287 287 287 287 287 287 287 287 288 288 288 288 288 288 288 288 288 288 288 288 288 287 287 287 287 287 287 287 287 287 287 287 286 286 286 286 286 286 286 287 287 287 287 287 287 287 287 288 288 288 289 289
286 286 286 286 286 285 285 285 285 285 285 285 285 284 284 284 284 284 284 284 285 285 285 286 286 286 287 287 287 287 287 287 287 287 287 287 287 287 287 287 287 288 288 288 288 288 288 288 288 288 288 288 288 288 288 287 287 287 287 287 287 287 287 287 287 286 286 286 286 286 286 286 286 287 287 287 287 287 287 287 288 288 288 288 288 289
286 286 286 286 285 285 285 285 285 285 285 285 284 284 284 284 284 284 284 284 284 285 285 285 286 286 286 286 286 287 287 287 287 287 287 287 287 287 287 287 287 288 288 288 288 288 288 288 288 288 288 288 288 288 287 287 287 287 287 287 287 287 287 287 287 287 286 286 286 286 286 286 286 287 287 287 287 287 287 287 288 288 288 288 288 288
286 286 286 285 285 285 285 284 285 285 285 285 284 284 284 284 284 284 284 284 284 284 284 284 285 285 285 286 286 286 286 286 286 286 286 286 287 287 287 287 287 287 287 287 287 288 288 288 288 288 288 288 288 288 287 287 287 287 287 287 287 287 287 287 287 287 286 286 286 286 286 286 287 287 287 287 287 287 287 287 287 288 288 288 288 288
286 286 285 285 285 285 285 285 285 285 285 284 284 284 284 283 283 283 283 283 284 284 284 284 284 284 285 285 285 286 286 285 285 285 285 286 286 286 286 286 286 287 287 287 287 287 288 287 287 288 288 288 288 287 287 287 287 287 287 287 287 287 287 287 287 287 286 286 286 286 286 286 286 286 287 287 287 287 287 287 287 287 288 288 288 288
286 285 285 285 285 285 285 285 285 285 284 284 284 284 283 283 283 283 283 283 284 284 284 284 284 284 285 285 285 285 285 285 285 285 285 285 286 286 286 286 286 286 287 287 287 287 287 287 287 287 288 288 288 287 287 287 287 287 287 287 287 287 287 287 286 286 286 286 286 286 286 286 286 286 287 287 287 287 287 287 287 287 287 288 288 288
286 285 285 285 285 285 285 285 285 284 284 284 284 283 283 283 283 283 284 284 284 283 284 284 284 284 285 285 285 285 285 285 285 285 285 285 286 286 286 285 285 286 286 287 287 287 287 287 287 287 287 288 288 288 288 287 287 287 287 287 287 287 287 286 286 286 286 286 286 286 286 286 286 286 286 287 287 287 287 287 287 287 287 287 288 288
285 285 285 285 285 285 285 285 284 284 284 283 283 283 283 283 283 283 283 284 284 284 284 284 284 285 285 285 285 286 285 285 285 284 284 285 285 286 286 285 285 286 286 287 287 287 287 287 287 287 288 288 288 288 288 288 288 287 287 287 287 287 287 286 286 286 286 286 286 286 286 286 286 286 286 286 287 287 287 287 287 287 287 287 287 288
285 285 285 285 285 285 284 284 284 284 283 283 283 283 283 283 283 283 284 284 284 284 284 285 285 285 285 285 285 286 285 285 284 284 284 284 285 286 286 285 285 285 286 287 287 287 287 287 287 287 288 288 288 288 288 288 288 287 287 287 287 287 286 286 286 286 286 286 286 286 286 286 286 286 286 286 286 287 287 287 287 287 287 287 287 287
285 285 285 285 284 284 284 284 283 283 283 283 283 283 283 283 283 283 284 284 284 285 285 285 285 285 285 285 285 285 285 285 284 284 284 284 285 285 285 285 285 285 285 286 287 287 287 287 287 288 288 288 288 288 288 288 287 287 287 287 286 286 286 286 286 286 286 286 286 286 286 286 286 286 286 286 286 286 287 287 287 287 287 287 287 287
285 285 284 284 284 284 284 284 283 283 283 283 283 283 283 283 284 284 284 285 285 285 285 285 285 285 285 285 285 285 285 285 284 284 283 284 285 285 285 285 284 285 285 286 286 286 286 287 287 288 288 288 288 288 287 287 287 287 286 286 286 286 286 286 285 285 285 285 285 285 285 285 286 286 286 286 286 286 286 286 286 287 287 287 287 287
284 284 284 284 284 284 284 283 283 283 283 283 283 283 283 284 284 285 285 285 285 285 285 285 285 285 284 284 285 285 285 284 284 283 283 283 284 285 285 285 284 284 285 285 286 286 286 286 287 287 287 287 287 287 287 287 286 286 286 286 286 285 285 285 285 285 285 285 285 285 285 285 285 285 285 286 286 286 286 286 286 286 286 287 287 287
284 284 284 284 284 284 283 283 283 283 283 283 283 284 284 285 285 286 286 286 285 285 285 285 284 284 284 284 285 285 285 284 284 283 283 283 284 285 285 284 284 284 284 285 285 285 285 286 286 286 287 287 287 287 286 286 286 286 286 285 285 285 285 285 285 285 285 285 285 285 285 285 285 285 285 285 285 285 286 286 286 286 286 286 286 286
284 284 284 284 284 283 283 283 283 283 283 284 284 285 285 286 286 286 286 285 285 284 284 284 284 284 285 285 285 285 285 285 284 283 282 282 283 284 285 284 284 284 284 284 284 284 285 285 285 286 286 286 286 286 286 286 286 286 285 285 285 285 285 285 285 285 285 285 285 285 285 285 285 285 285 285 285 285 285 285 285 285 286 286 286 286
284 284 283 283 283 283 283 283 283 284 284 285 285 286 286 286 286 285 285 285 284 284 284 284 284 284 285 285 285 285 285 285 284 283 282 282 283 284 284 284 284 284 284 284 284 284 284 284 284 285 285 286 286 286 286 286 286 286 285 285 285 285 285 285 285 285 285 285 285 285 285 285 285 285 285 285 285 285 285 285 285 285 285 285 285 285
283 283 283 283 283 283 283 283 284 284 285 286 286 286 286 286 285 285 285 285 285 285 284 284 284 284 285 285 285 285 285 285 284 283 282 282 283 283 284 284 284 283 284 284 284 283 283 284 284 284 285 285 286 286 286 286 286 286 285 285 285 285 285 285 285 285 285 285 285 285 285 285 285 285 285 285 285 285 285 285 285 285 285 285 285 285
283 283 283 283 283 283 283 284 284 285 285 285 285 285 285 285 285 285 285 285 285 285 284 283 283 284 284 285 285 285 285 284 284 283 282 282 283 283 284 284 284 283 283 283 283 283 283 284 284 284 284 285 285 285 286 286 286 286 286 285 285 285 285 285 285 285 285 285 285 285 285 285 285 285 285 285 285 285 285 285 285 285 285 285 285 285
283 282 282 282 282 283 283 283 284 284 284 284 284 284 284 284 284 284 285 285 285 284 283 283 283 283 284 284 285 285 285 284 284 283 283 282 283 283 284 284 283 283 283 283 283 283 283 283 284 284 284 285 285 285 285 285 285 285 285 285 286 286 286 286 286 286 286 286 286 286 285 285 285 285 285 285 285 285 285 285 285 285 285 285 285 285
282 282 282 282 283 283 283 284 284 284 284 285 285 285 284 284 284 284 284 285 284 284 283 283 282 282 283 283 284 285 285 284 284 284 283 283 283 283 283 284 283 283 283 283 283 283 283 283 283 284 284 284 284 285 285 285 285 285 286 286 286 286 286 286 286 286 286 286 286 286 286 285 285 285 285 285 285 285 285 285 285 285 285 285 285 285
282 282 283 283 283 284 284 284 284 285 285 285 285 285 285 285 284 284 285 285 284 283 283 283 283 282 282 283 283 284 285 284 284 284 283 283 283 283 284 283 283 283 283 283 283 283 283 283 283 283 284 284 284 284 285 285 285 286 286 286 286 287 287 287 286 286 286 286 286 286 286 286 285 285 285 285 285 285 284 284 284 284 284 284 284 284
283 283 284 284 284 284 284 284 285 285 285 285 285 285 285 285 285 285 285 284 284 283 283 283 283 282 282 282 282 283 284 285 285 284 284 283 283 283 284 283 283 283 283 282 282 282 283 283 284 284 283 284 284 284 285 285 285 286 286 286 286 287 287 286 286 286 286 286 286 286 286 285 285 285 285 285 285 285 284 284 284 284 284 284 284 284
283 284 284 284 284 284 285 285 285 285 285 286 286 286 285 285 285 285 285 284 284 283 283 283 282 282 281 281 281 282 284 285 285 284 284 283 283 283 283 283 283 283 282 282 282 282 282 283 284 284 284 284 284 284 284 285 285 285 285 286 286 286 286 286 286 286 286 286 286 286 286 285 285 285 285 285 285 285 285 284 284 284 284 283 283 283
284 284 284 285 285 285 285 285 286 286 286 286 286 286 286 285 285 285 285 285 284 284 283 282 282 281 281 281 281 282 284 285 286 285 284 283 283 283 283 283 283 282 282 282 282 282 282 282 283 284 284 284 284 284 284 285 285 285 285 285 285 286 286 286 285 285 285 285 285 285 286 286 285 285 285 285 285 285 285 285 284 284 284 283 283 283
284 284 285 285 285 286 286 286 286 286 286 286 286 286 286 286 285 285 285 285 285 284 283 283 282 282 282 282 282 283 285 286 286 285 284 283 283 283 283 282 282 282 282 282 282 281 281 282 282 283 283 283 284 284 284 285 285 285 284 284 285 285 286 285 285 285 285 285 285 286 286 286 286 286 286 285 285 285 285 285 285 284 284 284 283 283
284 285 285 285 286 286 286 286 286 286 286 287 287 286 286 286 286 286 285 285 285 285 284 283 283 282 282 282 283 284 286 286 286 285 284 283 283 283 282 282 282 282 282 281 281 281 281 282 282 282 282 283 284 284 284 285 285 284 284 284 284 285 285 285 285 285 285 285 285 286 286 286 286 286 286 286 286 286 285 285 285 285 285 284 284 284
285 285 286 286 286 286 286 286 286 287 287 287 287 287 286 286 286 286 286 285 285 285 285 285 284 283 283 283 284 285 286 287 286 285 284 284 283 283 282 282 282 282 281 281 281 281 281 282 282 282 282 282 283 284 285 284 284 284 284 284 284 284 284 285 285 285 285 285 285 285 286 286 286 286 286 286 286 286 285 285 285 285 285 284 284 284
285 286 286 286 286 286 287 287 287 287 287 287 287 287 286 286 286 286 286 286 286 285 285 285 285 285 284 284 284 285 286 287 287 286 285 284 283 283 282 282 282 282 281 281 281 281 281 281 281 282 282 282 283 284 284 285 284 284 284 284 284 284 284 284 284 284 284 285 285 285 285 285 285 285 286 286 286 286 285 285 285 285 285 285 284 284
286 286 286 286 287 287 287 287 287 287 287 287 287 287 286 286 286 286 286 286 286 286 285 285 285 285 285 285 285 286 286 287 287 286 286 285 284 283 282 282 282 282 281 281 281 281 281 281 281 281 282 282 282 283 284 284 285 285 285 285 285 284 284 284 284 284 284 284 285 285 285 285 285 285 285 285 285 285 285 285 285 285 285 285 285 285
286 286 286 287 287 287 287 287 287 287 287 287 287 287 286 286 286 286 286 286 286 286 286 286 286 286 286 286 286 286 287 287 287 286 286 285 284 283 282 282 282 282 282 282 281 281 281 281 281 281 281 282 282 283 283 284 284 284 285 285 285 285 285 285 284 284 284 284 284 284 284 284 284 284 285 285 285 285 285 285 285 285 285 285 285 285
286 287 287 287 287 287 287 287 287 287 287 287 286 286 286 286 286 286 286 286 286 286 286 286 286 286 286 286 287 287 287 287 287 286 286 285 284 283 283 282 282 282 282 282 282 281 281 281 281 281 281 282 282 283 283 284 284 284 284 285 285 285 285 285 284 284 284 284 284 284 284 284 284 284 284 284 284 284 285 285 285 285 285 285 285 285
287 287 287 287 287 287 287 287 287 287 286 286 286 286 286 286 286 286 286 286 286 286 286 286 286 286 287 287 287 287 287 287 286 286 286 285 285 284 283 283 282 282 282 282 282 281 281 281 281 281 281 281 282 282 283 284 284 284 284 284 284 285 286 285 285 285 284 284 284 284 284 284 284 284 284 284 284 284 284 284 284 285 285 284 284 284
287 287 287 287 287 287 287 286 286 286 286 286 286 286 286 286 286 286 287 286 286 286 286 286 286 286 287 287 287 287 287 287 286 286 286 286 285 284 283 283 283 282 282 282 282 282 281 281 281 281 281 281 282 282 282 283 284 284 283 283 284 285 285 285 285 285 285 285 284 284 284 284 284 284 284 284 284 284 284 284 284 284 284 284 284 284
287 287 287 287 287 287 287 286 286 286 286 286 286 286 286 286 286 286 286 286 286 286 286 286 287 287 287 287 287 287 287 286 286 286 286 286 285 285 284 283 283 282 282 282 282 282 282 281 281 281 282 282 282 282 282 283 284 284 284 284 284 284 284 285 285 285 285 284 284 284 284 284 284 284 284 284 284 284 284 284 284 284 284 284 284 284
287 287 287 287 287 287 287 286 286 286 286 286 286 286 286 286 286 286 286 287 287 287 286 286 287 287 287 288 288 287 287 287 286 286 286 286 285 285 284 284 283 283 282 282 282 282 282 282 282 282 282 282 282 282 282 283 284 284 284 284 284 283 283 284 285 285 285 284 284 284 284 284 284 284 284 284 284 284 284 284 284 284 284 284 284 284
287 287 287 287 287 286 286 286 286 286 286 286 286 286 286 286 286 286 286 286 287 287 287 287 287 287 287 287 287 287 287 287 287 286 286 286 285 285 284 284 284 283 282 282 282 282 282 282 282 282 282 282 282 282 282 282 283 284 284 285 284 284 283 284 284 284 284 284 284 285 285 285 284 284 284 284 284 284 284 284 284 284 284 284 284 284
287 287 287 286 286 286 287 287 286 286 286 286 286 286 286 286 286 286 286 286 287 287 287 287 287 286 287 287 287 287 287 287 287 287 286 286 285 285 284 284 284 283 283 282 282 282 282 282 283 283 283 282 282 282 282 283 283 284 284 285 284 284 284 284 284 284 284 284 284 285 285 285 284 284 284 284 284 284 284 284 284 284 284 284 285 285
287 287 287 287 287 287 287 286 286 286 286 286 286 286 286 286 286 286 286 286 287 287 287 287 286 285 285 286 286 286 287 287 287 287 286 286 286 285 285 284 284 283 283 283 282 282 282 283 283 283 282 282 282 282 283 283 283 284 284 285 285 284 284 284 284 284 284 284 284 285 285 285 284 284 284 284 284 284 284 284 284 284 284 285 285 285
287 287 287 287 287 287 287 286 286 286 286 286 286 286 286 286 286 286 286 286 286 286 286 286 286 285 285 286 286 285 285 286 286 287 287 286 286 286 285 284 284 283 283 283 283 283 283 283 283 283 282 282 282 283 284 284 284 284 284 284 284 284 284 284 284 285 284 284 284 285 285 285 284 284 284 284 284 284 285 285 285 285 285 285 285 285
287 287 287 287 287 286 286 286 286 286 286 286 286 286 286 286 286 286 286 286 286 286 286 285 285 285 285 285 285 285 284 284 285 286 286 286 286 286 286 285 284 284 284 284 283 284 284 284 284 284 283 283 283 283 284 284 284 284 284 284 284 284 284 284 285 285 285 285 285 285 285 285 285 285 285 285 285 285 285 285 285 285 285 285 285 285
287 287 286 286 286 286 286 286 286 286 286 286 286 286 286 286 286 286 286 286 286 286 285 285 285 285 284 284 284 284 284 284 284 285 285 286 286 286 285 285 285 284 284 284 285 285 285 285 285 284 284 284 284 284 284 284 285 285 284 284 284 284 284 284 285 285 285 285 285 285 285 285 285 285 285 285 285 285 285 285 285 285 285 285 285 285
286 286 286 286 286 286 286 286 286 286 285 285 285 286 286 286 286 286 286 286 286 285 285 284 284 284 284 284 284 284 283 283 284 284 285 285 285 285 284 284 284 284 284 284 284 285 285 285 285 285 285 284 284 284 284 285 285 285 284 284 284 285 285 285 285 285 285 285 285 285 285 285 285 285 285 285 285 285 285 285 285 285 285 285 285 285
286 286 286 286 285 285 285 285 285 285 285 285 285 285 285 286 286 286 286 286 285 285 285 284 284 283 283 283 283 283 283 283 283 284 284 284 284 284 283 283 283 283 283 283 283 283 283 283 284 284 285 285 285 284 284 284 285 285 285 285 285 285 285 285 285 285 285 285 285 285 285 285 285 285 285 285 285 285 285 285 285 285 285 285 286 285
Wind_Speed
25 26 27 28 29 29 29 29 28 28 28 28 27 27 26 25 25 24 23 22 22 22 22 22 22 21 20 19 19 18 18 17 17 18 18 18 18 18 19 19 19 20 20 21 21 22 22 22 22 23 23 23 22 22 22 22 22 22 23 23 24 24 24 25 25 26 26 26 26 27 27 27 28 29 29 29 30 30 30 30 30 30 30 30 30 30
26 27 28 28 29 29 29 29 28 28 28 28 28 27 26 26 25 24 22 21 21 21 21 21 20 20 19 18 18 17 17 17 17 17 18 18 18 19 19 19 20 20 21 21 21 21 21 21 21 21 21 21 21 21 21 21 21 22 22 23 23 24 24 25 26 27 27 28 28 28 28 29 29 29 30 30 30 30 30 30 30 30 30 30 30 30
27 28 28 28 28 28 29 28 28 28 28 28 28 27 26 26 25 24 23 21 20 20 19 19 19 19 18 18 17 17 17 17 17 17 18 18 19 19 19 20 20 20 20 20 20 20 20 20 20 19 19 20 20 20 21 21 21 21 22 22 23 24 25 26 26 27 28 29 29 29 29 30 30 30 30 30 31 31 31 31 30 30 30 30 30 30
27 27 27 28 28 28 28 28 28 28 28 28 27 27 26 26 25 24 23 21 20 19 18 18 18 18 18 17 17 17 17 17 17 17 18 18 19 19 19 19 19 19 19 18 18 18 18 18 18 18 18 19 19 20 20 20 20 21 22 23 24 25 26 26 27 27 28 29 29 29 30 30 30 30 30 31 31 31 31 31 30 30 30 30 30 30
27 27 27 27 27 28 28 28 28 28 28 28 27 27 26 26 25 24 22 21 19 18 18 17 17 17 17 17 17 17 17 17 17 18 18 19 19 19 18 18 17 17 16 16 16 16 16 16 16 17 17 18 19 19 19 20 21 22 23 24 25 26 27 27 28 28 29 29 29 30 30 30 30 30 30 30 30 30 30 30 30 30 30 30 29 30
27 26 26 26 27 27 28 28 28 28 28 28 27 27 27 26 24 23 22 20 19 18 18 17 17 17 17 17 17 17 17 17 18 18 18 18 17 17 16 16 15 15 15 15 15 15 15 16 16 17 18 18 19 19 20 21 22 22 23 24 25 26 27 28 29 30 30 31 31 31 31 31 31 31 31 30 30 30 30 29 29 29 29 29 29 29
26 26 26 26 26 27 27 27 27 27 27 27 27 27 27 25 24 22 21 20 20 19 19 18 17 17 17 17 17 17 17 18 18 18 17 17 16 16 15 15 15 15 15 15 16 16 16 17 18 18 19 19 20 20 21 21 22 22 23 24 25 26 27 28 29 30 30 31 31 32 32 33 33 33 32 31 30 30 29 29 29 29 28 28 28 28
26 26 25 25 25 26 27 27 26 26 26 26 26 26 26 25 23 23 22 21 20 20 20 19 18 17 17 17 17 18 18 18 18 18 17 16 16 16 16 17 17 17 17 18 18 18 19 19 20 20 20 21 21 21 21 21 22 22 23 23 24 25 26 27 27 28 29 30 30 31 31 32 32 33 33 33 32 31 30 30 29 29 28 28 28 28
25 25 25 25 25 25 26 26 26 26 25 25 24 24 24 24 23 23 23 23 22 21 21 20 20 19 18 17 18 19 19 19 19 18 18 17 17 18 19 19 20 20 20 20 20 20 20 21 21 21 21 21 21 21 21 21 22 22 23 23 24 25 25 26 26 27 27 28 28 29 29 30 30 31 31 32 32 32 31 31 30 29 29 28 28 28
23 23 24 24 25 24 25 25 26 26 25 24 23 22 22 22 23 24 24 23 22 22 21 21 21 21 20 19 19 20 21 20 19 19 19 19 20 20 21 22 22 22 22 22 22 22 22 22 22 22 22 21 21 21 21 21 21 22 23 23 24 24 25 26 26 26 27 27 27 27 28 28 28 29 29 30 30 30 30 30 29 29 29 29 29 29
22 22 22 23 24 24 25 26 26 25 24 22 22 21 21 21 22 23 24 24 23 22 22 22 22 23 23 22 22 21 22 22 22 21 21 21 22 23 24 24 24 24 24 23 23 22 22 22 22 22 21 21 21 20 21 21 21 22 23 23 24 24 25 25 26 26 26 26 26 26 26 27 27 27 28 28 28 29 29 29 29 29 29 30 30 30
21 21 21 22 23 24 25 25 24 22 21 19 19 18 18 19 20 21 22 23 23 23 23 23 23 24 24 24 24 23 23 23 24 24 25 25 26 26 27 27 27 26 26 25 25 24 23 23 22 22 21 21 20 20 21 21 22 22 23 23 24 24 25 25 26 26 26 26 26 26 26 26 26 27 27 28 28 28 28 29 29 29 30 30 31 31
20 21 21 22 22 22 21 21 19 18 16 16 16 17 18 19 20 20 20 21 21 22 23 24 25 25 24 24 24 24 24 25 25 26 27 27 28 29 30 30 29 29 28 28 26 25 23 23 23 22 21 20 20 20 20 21 22 22 23 23 24 25 25 25 25 25 25 25 25 25 26 26 26 27 27 28 28 28 28 29 29 30 30 31 31 31
20 20 20 20 20 19 18 17 16 16 15 15 17 18 19 20 20 20 20 20 21 21 22 23 24 24 24 24 24 24 24 25 25 26 27 27 28 29 30 30 30 30 29 28 27 25 23 23 22 22 21 20 20 20 21 21 22 22 23 23 24 24 25 25 25 25 24 24 24 24 25 25 25 26 27 27 28 28 28 29 29 30 30 31 31 32
20 19 19 19 19 18 17 16 16 16 16 17 18 19 19 19 19 19 19 20 21 22 23 23 24 24 23 22 23 23 24 24 25 26 27 28 28 29 30 30 30 30 29 28 27 25 23 22 22 21 21 20 20 20 21 21 22 22 23 23 23 24 24 24 24 24 23 23 23 24 24 24 25 26 26 27 27 28 28 29 29 30 30 31 31 32
19 19 19 19 18 17 16 16 16 16 17 19 19 19 19 18 18 18 19 20 21 22 22 23 23 23 22 22 22 22 23 24 25 26 28 29 29 30 30 31 31 30 29 27 26 25 23 22 22 22 22 22 22 22 22 22 22 23 23 23 23 23 23 23 23 23 23 23 23 23 23 24 25 26 26 27 27 28 28 29 29 30 30 31 31 32
19 18 18 18 17 17 16 17 17 18 19 20 19 18 18 18 18 18 19 21 22 22 22 22 22 23 23 23 22 22 24 25 26 27 29 30 31 31 31 30 31 31 29 27 26 24 24 24 23 24 24 24 24 24 24 24 24 24 23 23 22 22 22 22 22 22 22 22 23 23 24 24 25 26 26 27 27 28 28 29 29 30 30 31 31 32
18 18 17 17 17 17 17 17 18 19 19 19 19 18 18 18 18 19 20 21 22 22 22 22 22 23 24 24 24 24 25 26 27 29 30 33 33 33 31 30 29 29 29 27 26 25 25 26 26 26 26 27 27 27 26 26 26 25 24 23 22 22 22 21 21 22 22 22 23 24 24 25 26 26 27 27 28 28 28 29 29 30 30 31 31 31
17 17 17 18 18 18 18 19 19 19 18 18 18 19 19 18 19 20 21 22 23 23 24 23 24 24 25 26 26 27 28 28 29 30 31 34 35 33 30 28 28 28 28 28 27 27 27 28 28 28 28 28 28 28 28 28 27 27 25 24 24 23 23 23 23 23 23 23 24 24 25 25 26 27 27 27 28 28 29 29 29 30 30 30 30 31
19 18 18 19 19 19 19 18 19 19 18 19 19 19 19 20 21 22 23 24 24 25 25 25 25 25 26 28 30 30 30 31 31 32 32 35 35 32 29 27 27 28 29 29 28 28 29 30 31 30 30 30 30 29 29 29 29 28 27 26 25 24 24 24 24 24 24 25 25 25 25 26 26 27 27 27 28 28 28 29 29 29 30 30 30 30
19 20 19 19 19 19 19 19 19 19 19 19 19 19 20 22 22 23 23 24 24 24 25 25 25 26 27 30 33 33 33 32 32 32 33 33 33 31 28 27 27 28 29 29 30 30 31 32 33 32 32 31 31 30 30 29 29 28 27 27 26 26 26 26 26 25 25 25 26 26 26 26 26 26 27 27 27 28 28 29 29 29 30 30 31 31
20 20 20 19 18 19 20 21 20 19 19 19 20 21 21 22 23 23 23 23 23 23 24 24 26 28 31 33 35 35 33 32 30 30 31 31 31 30 27 26 26 28 29 30 30 31 32 33 33 33 33 32 31 31 30 29 28 28 27 27 27 27 27 27 26 26 26 26 26 26 26 26 27 27 27 28 28 29 29 30 30 30 31 31 31 32
19 19 19 19 19 20 21 22 22 21 19 19 19 20 21 21 21 22 22 22 23 24 27 29 31 33 34 35 34 33 31 29 28 27 26 27 29 28 26 25 26 27 29 30 30 31 32 32 33 34 33 33 32 31 30 28 28 27 27 28 28 28 28 27 27 27 27 27 27 27 27 27 28 28 28 29 29 30 30 30 31 31 31 32 32 33
19 21 22 23 24 24 24 23 22 20 18 18 19 19 19 19 20 22 23 26 28 30 32 32 33 33 33 32 31 30 28 27 25 24 23 24 26 27 26 25 26 27 28 29 30 30 30 31 32 33 33 33 33 31 30 28 28 28 28 28 28 28 28 28 27 27 27 27 27 27 27 27 27 27 27 27 27 28 28 29 29 30 30 31 31 32
22 23 25 25 25 24 22 20 18 17 17 17 18 19 20 22 24 26 28 29 30 31 31 30 30 31 31 30 29 28 27 25 23 22 22 23 25 26 26 26 26 27 29 29 30 29 29 30 32 33 33 34 33 32 31 30 29 29 28 28 28 28 27 27 27 27 27 27 26 26 25 25 24 24 24 24 24 24 25 25 26 27 28 28 29 30
24 24 24 24 23 21 19 18 17 17 18 19 21 22 24 25 26 27 27 28 28 28 29 28 29 29 29 29 29 28 25 24 22 21 21 22 24 26 27 27 26 27 29 30 29 29 29 30 32 32 33 33 33 33 33 33 32 31 30 29 28 27 26 26 26 25 25 25 24 24 24 24 23 23 23 23 23 23 23 24 25 25 26 27 27 28
23 24 23 22 21 20 19 19 19 19 19 20 20 22 24 26 27 27 28 27 27 27 26 26 27 27 28 27 27 26 25 23 21 20 19 21 24 26 28 27 27 27 29 30 30 30 30 31 32 32 32 33 34 35 35 35 34 33 32 30 28 27 25 24 24 23 23 23 23 24 24 24 24 24 24 24 24 24 24 25 25 25 26 27 27 28
21 21 20 19 19 18 18 18 18 18 18 19 20 21 23 25 26 27 27 26 25 25 24 24 25 25 26 26 26 26 25 23 21 19 19 20 23 25 26 27 27 28 29 30 31 32 31 31 31 31 32 32 33 35 36 36 35 34 33 31 29 27 25 24 23 23 23 23 24 24 24 25 25 25 25 25 25 25 25 25 25 26 26 27 28 29
17 17 16 15 15 15 15 15 16 17 18 19 20 21 23 24 25 25 25 24 24 23 23 23 23 23 24 25 26 26 25 23 20 19 19 21 23 25 26 27 27 27 28 30 32 32 31 29 28 28 29 31 32 34 36 36 36 35 34 32 30 28 27 26 25 25 25 25 25 25 25 25 24 24 24 25 25 24 24 24 24 25 26 26 28 29
13 12 12 12 12 13 15 16 17 17 18 19 20 21 22 23 23 24 23 23 22 21 21 21 22 22 22 23 24 25 24 21 19 19 20 22 24 26 27 27 27 27 28 29 30 31 30 29 27 26 27 30 33 35 36 36 36 35 34 33 32 31 30 30 29 29 28 27 27 26 25 25 24 24 24 24 23 23 23 22 22 23 24 26 27 28
12 11 12 12 13 14 16 17 18 18 19 19 20 21 22 22 22 22 21 21 20 19 19 20 20 20 20 21 22 23 24 22 20 20 22 23 25 27 28 28 28 27 27 26 27 28 28 29 29 29 29 31 33 35 35 35 35 35 35 34 34 34 33 32 32 32 31 30 29 27 26 25 24 23 23 22 22 21 21 20 20 21 23 25 26 27
13 13 13 14 14 15 16 17 18 19 19 20 21 21 21 21 20 20 19 18 18 17 17 18 19 19 20 20 21 23 25 24 22 22 23 24 26 28 28 28 28 28 28 26 25 25 25 29 33 34 34 33 34 34 35 35 35 34 34 35 35 35 35 34 34 33 33 31 30 28 26 25 23 22 21 21 20 19 19 18 18 19 21 22 24 25
14 14 14 14 15 16 17 18 19 19 20 20 20 20 19 19 18 17 17 16 16 16 17 18 19 19 20 21 23 24 25 25 24 23 23 24 26 28 28 28 29 29 29 27 26 26 28 31 34 36 36 35 35 34 35 35 34 34 34 35 35 36 36 36 35 34 33 32 30 29 27 25 23 22 21 20 19 18 18 17 17 17 18 20 21 22
13 13 14 14 15 16 17 18 19 19 20 20 19 19 18 17 16 16 15 15 15 16 16 17 18 19 20 21 23 24 25 25 24 23 24 25 26 28 28 28 29 29 29 28 28 27 29 30 32 34 35 36 35 35 35 34 34 34 34 34 35 36 37 36 36 35 34 32 31 30 28 26 25 23 21 20 19 18 18 17 17 17 17 19 20 22
13 13 14 15 16 16 17 18 18 19 19 19 18 18 17 16 16 15 15 15 15 16 17 17 17 18 19 20 22 24 25 25 24 24 25 25 26 27 28 28 29 29 29 29 30 29 29 29 30 32 33 35 36 36 35 33 32 33 34 35 35 36 37 36 36 35 34 33 32 31 30 29 27 25 24 22 20 20 19 18 18 18 18 19 20 21
13 13 14 15 16 16 17 17 17 18 18 18 17 17 16 16 15 15 15 16 16 16 17 17 17 17 18 19 21 23 25 25 26 26 25 25 25 26 27 28 28 28 29 30 31 31 31 32 32 32 32 34 35 36 35 33 33 33 34 35 36 36 36 36 35 34 34 34 33 32 31 31 30 28 27 25 23 22 21 20 19 19 19 19 20 20
13 13 14 15 16 16 17 17 17 17 17 17 17 16 16 15 15 16 16 16 16 16 17 17 17 17 18 19 21 23 25 26 26 26 25 24 23 24 26 27 27 26 27 29 30 31 32 32 32 32 30 31 32 33 35 36 36 36 36 36 36 36 36 35 34 34 34 34 34 34 33 32 32 31 29 28 26 25 23 22 21 20 20 20 20 20
13 13 14 15 15 16 16 16 16 16 16 16 16 15 15 15 16 16 16 16 16 16 16 17 17 18 19 20 22 23 25 25 26 25 25 24 23 23 24 26 27 26 26 27 29 30 31 31 31 32 32 32 33 34 35 37 38 38 38 38 37 36 36 35 34 33 33 34 34 34 34 33 32 32 31 30 29 28 27 25 23 22 22 22 22 22
13 13 14 15 15 16 16 16 16 15 16 15 15 15 16 16 16 16 15 15 16 16 16 17 18 19 20 21 22 24 24 25 25 25 25 24 24 23 23 25 26 26 26 26 27 28 30 31 32 32 33 34 35 36 36 37 38 39 39 39 39 37 35 34 33 33 33 34 35 35 34 33 32 32 32 31 31 30 30 29 27 26 25 25 26 25
13 13 14 14 15 15 15 15 15 15 15 15 16 16 16 16 16 16 16 16 16 16 17 18 19 20 21 22 23 24 24 24 25 25 26 26 25 24 23 24 25 26 26 26 26 27 29 31 32 33 33 34 35 37 37 38 38 39 38 39 39 38 36 35 35 35 34 34 34 35 34 34 33 33 32 32 32 32 32 31 31 29 28 28 29 29
13 13 14 14 14 13 14 14 15 15 16 16 16 16 17 17 17 17 17 17 17 17 17 18 19 20 21 22 23 24 24 25 26 26 27 27 26 25 24 24 25 25 26 26 27 28 29 30 32 33 34 34 35 36 37 38 38 38 37 37 38 38 38 38 37 35 35 34 34 34 34 34 34 33 33 32 32 32 32 32 32 32 30 30 30 30
13 13 14 13 13 13 13 14 14 15 16 16 17 17 17 17 17 17 17 17 17 17 18 19 20 21 22 23 23 24 25 26 27 28 28 28 28 27 26 25 25 25 25 26 28 29 29 30 32 33 34 34 35 36 37 39 39 38 37 37 38 39 40 39 37 35 34 34 34 34 34 34 34 34 34 34 33 33 33 33 32 32 32 31 31 31
13 13 13 12 12 13 13 14 15 16 16 17 17 17 17 18 18 18 18 18 18 18 18 19 20 22 23 24 25 25 26 27 28 28 29 29 29 28 27 26 26 25 25 27 28 30 30 30 31 33 33 34 34 35 37 39 39 39 38 37 37 37 37 38 38 36 35 35 35 35 35 35 35 35 35 35 35 35 34 34 33 32 32 32 32 32
13 13 12 12 13 13 14 15 15 16 17 17 18 18 18 18 18 18 18 18 18 18 19 20 21 23 24 25 26 27 28 28 28 29 29 29 29 29 28 28 27 26 26 27 28 30 31 31 32 32 32 33 34 35 37 38 39 39 38 37 36 36 36 38 38 38 37 37 36 36 36 35 35 35 35 35 36 36 36 35 35 35 34 33 33 33
13 13 13 13 13 14 14 15 16 16 17 17 18 18 19 19 19 19 19 19 19 19 20 21 22 24 26 27 28 29 30 30 30 29 30 30 30 29 29 28 28 27 27 27 28 29 30 32 33 33 32 33 34 35 36 37 38 39 39 38 37 37 38 38 37 37 37 37 37 36 36 36 35 35 36 36 37 37 36 36 35 35 35 34 34 34
14 13 13 13 14 14 15 15 16 17 17 18 18 19 19 19 19 19 20 20 20 21 21 22 23 25 26 27 29 30 31 31 31 31 31 30 30 30 30 29 29 28 28 28 28 29 30 31 32 33 33 33 34 35 36 36 37 38 39 38 38 38 37 37 37 37 37 37 37 37 37 37 36 36 37 37 37 36 36 35 35 35 35 35 35 35
14 14 14 14 15 15 15 16 16 17 17 18 18 19 19 19 20 20 20 21 21 22 22 23 24 25 26 27 29 30 31 32 33 33 32 32 32 31 30 30 29 29 28 28 29 29 30 31 31 32 32 33 34 36 36 36 36 36 37 38 38 38 38 39 38 38 37 37 37 37 38 37 36 36 37 38 37 37 36 35 35 35 34 35 35 34
14 14 15 15 15 15 16 16 16 17 17 18 18 19 19 19 20 20 21 21 22 22 23 23 24 25 26 27 28 29 30 31 33 34 34 34 33 33 32 31 30 30 29 28 29 29 30 31 31 31 30 31 33 34 36 36 35 36 36 37 37 38 38 39 39 38 37 37 38 38 38 37 36 37 38 38 38 38 37 36 35 34 34 34 33 34
15 15 15 16 16 16 16 16 17 17 17 18 18 19 19 19 20 20 21 21 22 22 23 23 24 25 27 27 28 29 30 31 32 34 34 34 34 34 33 33 32 31 31 30 30 31 31 32 32 31 29 29 30 32 34 35 35 35 35 36 36 37 38 38 38 38 37 37 38 39 38 37 37 37 38 38 38 38 37 36 35 34 33 33 32 32
15 15 16 16 16 17 17 17 17 17 17 18 18 19 19 19 19 20 20 21 22 22 23 23 24 25 26 28 28 29 30 31 32 34 34 34 34 34 34 34 33 33 33 33 33 33 33 33 32 31 29 27 27 28 31 33 35 35 34 35 35 35 36 37 37 37 37 38 38 38 38 38 38 37 37 37 37 37 37 36 34 33 32 31 31 31
15 15 16 16 17 17 17 17 17 17 18 18 19 19 20 20 20 20 21 21 22 22 23 23 24 25 26 27 28 29 30 31 32 33 34 34 34 34 34 34 34 34 34 34 34 33 32 32 33 32 31 28 25 24 26 29 32 34 35 35 35 34 35 35 36 37 38 38 38 38 38 37 36 36 35 35 35 35 35 34 34 32 31 30 29 30
Wind_Direction
294 295 296 297 298 299 299 301 302 304 305 305 306 307 307 307 305 304 303 301 299 297 296 295 294 294 293 292 291 290 289 288 287 287 287 287 287 287 287 287 287 288 288 288 287 286 285 284 282 281 281 280 280 280 280 280 280 281 280 280 281 282 282 281 280 279 277 277 276 275 276 275 275 275 275 275 275 274 274 274 274 274 274 274 274 274
295 296 297 297 298 299 300 301 303 304 305 307 308 309 309 308 307 306 304 302 300 298 297 296 295 294 293 293 291 290 289 288 288 289 289 290 291 291 291 291 291 291 291 290 290 289 288 287 286 285 285 284 283 283 282 281 281 280 280 280 280 281 281 280 279 278 277 276 275 275 275 275 275 275 275 275 275 275 275 275 275 275 275 274 274 274
296 297 297 298 299 299 300 302 303 304 306 307 309 310 310 309 308 307 306 304 302 300 298 297 296 295 294 293 291 290 290 291 292 293 294 294 294 294 294 294 294 293 293 292 291 290 289 288 288 287 286 286 285 284 284 284 283 283 282 282 282 281 280 280 279 279 277 276 275 275 275 275 275 275 275 275 275 275 275 275 275 274 274 273 273 272
296 297 298 298 299 299 300 302 303 305 307 308 309 310 310 309 309 308 307 306 303 301 298 297 296 295 295 293 292 292 293 294 296 296 297 297 297 297 296 296 295 294 294 292 291 290 289 288 287 286 286 285 285 286 287 287 287 287 286 285 283 282 280 280 280 279 278 277 276 276 276 276 275 275 275 274 274 274 274 274 274 273 272 272 272 271
296 297 297 298 299 299 300 302 304 305 307 309 310 310 310 309 309 308 308 306 304 302 300 299 298 297 297 296 296 296 297 298 299 299 299 299 299 298 297 297 296 295 293 292 291 290 289 288 287 287 288 289 289 291 291 291 290 289 287 285 283 281 279 278 278 277 276 275 275 275 275 275 274 274 274 273 273 273 273 273 272 272 271 271 271 270
296 296 297 297 298 298 300 302 304 306 308 309 310 310 310 309 309 309 309 308 307 305 303 302 302 301 300 300 301 301 301 301 301 301 301 300 299 299 298 298 297 296 295 294 294 293 293 293 293 294 296 297 297 297 295 293 291 288 286 284 281 279 277 276 275 274 273 272 272 272 272 272 272 272 272 272 272 272 272 272 271 271 270 271 270 270
295 295 296 297 297 298 300 301 303 306 308 309 310 310 310 310 311 311 311 311 310 309 307 306 306 305 304 304 305 305 305 304 304 303 302 302 302 302 302 302 302 302 303 303 303 303 303 303 304 304 304 304 303 301 298 295 291 288 286 283 282 280 278 277 276 275 274 273 273 272 272 272 271 271 271 271 271 271 271 271 270 270 270 270 270 271
294 294 295 295 296 298 299 301 303 306 308 309 310 310 311 312 313 314 314 314 313 312 311 311 309 308 308 308 309 309 309 309 309 309 308 308 308 309 310 310 311 311 312 313 313 312 312 311 310 310 308 307 304 302 298 295 292 289 287 285 283 282 281 280 280 279 278 277 276 276 275 274 273 272 271 271 270 270 270 270 270 270 270 270 270 270
292 294 294 294 296 298 300 301 303 306 309 309 310 311 313 314 316 317 317 316 315 315 315 314 314 313 311 312 314 315 315 315 316 317 317 317 317 317 317 317 318 318 318 318 318 317 316 315 313 311 309 307 305 301 298 294 291 289 287 286 285 285 284 284 283 282 281 280 280 279 278 277 276 274 273 272 271 271 270 270 270 270 271 270 270 270
291 293 294 295 297 298 300 301 304 307 310 311 312 313 315 316 317 317 317 316 316 316 317 318 318 318 316 316 318 320 321 321 321 321 321 321 321 321 321 321 321 321 321 320 319 318 317 316 314 312 310 307 304 300 297 294 291 289 288 287 287 287 286 286 286 285 284 283 282 281 280 278 277 276 275 274 273 273 272 272 272 272 271 271 270 270
292 293 294 296 298 299 301 303 306 310 313 315 316 316 317 317 317 316 315 314 315 317 319 320 320 320 320 321 322 324 325 325 325 324 323 323 323 323 323 323 323 323 322 321 320 319 318 317 314 312 310 307 304 300 297 294 291 290 289 288 288 288 288 288 287 286 285 284 283 281 280 278 277 276 276 276 275 274 274 273 273 272 271 271 270 270
292 293 294 296 298 301 304 307 311 314 316 317 316 315 314 314 315 314 313 313 315 318 320 320 320 319 320 321 324 326 328 327 326 325 325 325 325 325 325 325 324 324 323 322 321 321 320 318 315 313 310 308 304 301 298 295 293 291 290 289 289 289 288 288 287 286 286 285 283 282 280 278 277 276 276 276 275 275 274 273 272 272 271 271 271 270
291 293 295 297 299 302 305 308 311 312 312 310 309 309 309 310 312 313 312 312 314 317 318 318 318 318 319 322 325 326 327 325 324 324 323 324 325 325 324 323 323 323 324 323 322 322 321 319 316 314 311 309 306 302 300 296 294 293 291 290 290 289 289 288 288 287 286 285 283 281 280 278 277 276 276 275 275 275 274 273 273 272 272 271 271 271
292 295 297 298 300 301 303 304 304 304 303 304 306 308 309 310 312 312 312 311 313 314 315 314 313 314 316 320 324 325 324 322 320 319 319 319 320 321 320 319 319 320 322 321 320 321 322 319 317 314 312 310 307 304 302 299 297 295 293 292 292 291 290 290 289 288 287 285 283 281 279 278 277 276 276 276 276 275 275 274 273 273 272 272 271 271
294 296 296 296 297 299 300 300 300 300 301 303 306 307 308 310 311 312 311 309 309 312 313 312 312 311 312 316 320 322 320 318 315 314 313 314 316 317 317 315 315 317 319 319 319 320 321 319 317 316 314 311 309 307 304 302 300 298 297 296 295 294 293 292 290 289 287 284 282 281 279 278 278 278 277 277 276 276 275 274 274 273 272 272 272 271
294 295 294 295 296 297 297 297 297 298 300 303 305 307 309 309 310 311 308 307 308 310 311 310 310 309 309 313 317 318 317 313 311 310 310 310 312 315 315 313 312 314 317 318 319 320 321 320 318 317 315 313 311 309 307 306 304 302 301 299 298 297 295 294 292 289 287 285 283 282 281 280 279 278 278 277 277 276 276 275 274 273 273 272 272 271
293 293 293 295 295 295 294 296 297 299 302 304 306 308 309 309 309 307 305 306 307 308 308 308 307 307 308 310 313 315 315 312 309 307 307 307 310 314 315 312 310 312 316 318 320 321 322 321 320 318 317 315 314 312 311 310 308 307 305 304 302 301 299 297 294 292 290 288 286 284 283 282 281 280 279 278 277 277 276 275 275 274 273 272 271 271
292 292 292 292 292 292 293 296 299 302 304 306 308 310 311 309 306 304 303 304 305 306 306 305 303 303 305 306 308 311 312 309 306 305 305 305 308 313 315 312 310 311 315 318 320 321 322 322 321 320 318 317 316 315 315 314 313 312 311 310 308 306 304 301 299 297 294 292 290 288 286 285 283 282 280 279 278 278 277 276 275 275 274 273 272 271
288 288 288 289 290 292 295 298 301 304 306 307 309 310 308 304 302 302 303 304 305 306 304 302 300 300 300 301 304 308 308 306 304 303 303 303 307 312 315 313 311 311 315 318 320 322 322 322 321 320 319 318 318 318 318 318 317 317 316 315 313 311 308 306 303 301 299 296 294 291 290 288 286 284 282 281 280 279 278 277 276 275 275 274 274 273
284 284 286 289 292 295 297 299 303 306 307 308 308 306 303 301 302 303 304 307 307 306 305 301 299 298 298 299 302 305 306 304 303 301 301 303 307 312 315 313 311 312 315 318 320 321 322 322 321 320 320 320 321 321 321 320 320 319 318 317 315 313 311 308 306 303 301 298 296 294 292 289 287 285 283 282 281 280 279 278 277 276 276 275 274 274
283 285 287 292 295 296 297 299 303 306 305 305 304 303 301 302 303 304 306 307 306 304 302 299 298 296 297 297 299 302 305 304 301 301 301 303 307 312 316 314 312 312 314 316 319 321 321 321 321 321 321 322 323 323 323 322 321 320 319 317 315 313 311 309 306 304 302 299 297 295 294 292 290 288 286 285 283 282 281 279 278 277 276 275 274 273
285 288 291 294 294 294 295 298 299 301 302 304 304 303 304 305 305 305 306 306 303 300 297 294 292 292 293 295 298 302 305 303 301 301 302 303 307 312 317 315 312 311 312 315 317 319 319 318 319 320 321 323 324 325 324 323 322 320 318 316 314 313 311 309 307 305 303 301 299 298 297 295 294 293 290 287 285 283 282 280 278 276 275 273 272 271
286 288 290 290 290 292 293 296 298 302 306 310 309 308 310 308 307 306 305 301 297 293 291 290 291 292 294 297 300 304 305 305 304 303 302 300 304 310 315 313 311 309 309 312 315 316 316 315 316 317 319 322 324 325 325 324 322 320 318 316 314 313 311 310 309 307 305 303 302 300 298 297 294 292 289 286 283 281 279 277 276 275 274 273 272 271
288 289 289 291 292 294 297 299 303 307 311 312 311 309 307 303 299 295 292 290 289 290 291 292 294 296 298 301 303 305 307 307 306 304 301 299 302 306 311 312 309 308 308 311 313 313 312 312 313 314 316 319 323 325 326 325 323 321 319 317 315 314 313 312 311 309 307 305 303 301 298 296 293 290 287 285 283 281 279 277 276 275 275 274 274 273
291 291 292 293 295 296 298 301 302 301 298 295 292 290 288 286 285 284 284 287 289 292 294 296 297 298 300 303 305 306 308 309 307 305 303 301 303 307 311 312 310 308 309 311 312 312 310 309 309 311 313 318 321 324 326 326 325 323 322 320 318 317 315 314 312 309 307 305 303 301 300 298 296 294 292 290 287 285 283 281 279 278 277 276 275 274
291 290 289 290 290 289 287 284 281 278 276 276 278 281 284 286 287 289 290 292 294 296 296 297 296 297 301 303 305 306 309 309 308 307 306 304 304 307 312 314 312 310 309 310 310 309 307 307 308 311 314 318 321 324 325 326 326 325 324 323 322 320 317 315 312 310 308 306 305 304 303 302 301 299 298 296 294 291 289 286 284 282 281 280 278 277
287 286 285 284 283 281 278 276 275 275 277 280 284 289 292 294 295 296 296 297 297 297 296 295 295 297 300 301 303 306 309 310 310 311 312 308 305 306 311 314 313 310 309 308 308 307 306 307 309 312 315 319 322 324 324 325 325 325 325 325 324 323 320 317 315 313 311 309 308 307 306 305 304 303 301 300 298 296 293 291 288 285 284 283 281 279
284 283 283 282 280 280 280 282 284 287 289 291 294 296 297 297 296 294 294 295 296 294 293 292 292 294 297 299 303 308 311 313 314 316 316 312 306 305 310 312 311 309 308 308 308 309 308 308 310 314 316 319 320 321 322 322 323 323 325 327 327 326 325 323 320 318 315 312 310 309 308 307 305 304 302 300 299 297 295 292 289 286 284 283 281 279
282 280 279 279 280 283 286 289 292 295 297 299 299 299 298 296 294 293 293 294 293 292 290 291 291 293 296 300 305 310 313 316 319 320 318 312 307 306 310 311 310 309 309 309 310 311 310 310 311 313 314 315 316 317 319 321 323 325 327 329 330 330 330 328 326 323 320 317 314 312 310 309 306 304 302 300 298 296 293 291 289 287 284 282 280 278
289 287 286 287 291 296 299 300 301 301 302 301 301 300 299 297 296 295 294 293 291 290 290 291 293 294 297 301 304 308 310 315 319 319 316 312 309 309 311 311 310 310 310 310 311 311 310 311 312 311 311 312 314 315 318 321 324 326 328 329 330 331 331 330 328 326 323 321 319 316 314 311 309 306 304 301 298 296 293 291 289 287 285 282 280 279
309 307 306 305 305 305 305 304 303 303 303 302 302 301 301 299 297 296 295 293 291 290 291 292 294 295 295 295 296 298 302 311 317 318 317 313 310 310 312 311 310 310 310 309 308 308 308 310 312 313 312 312 313 315 318 320 322 324 325 326 327 328 329 328 327 325 324 323 321 319 316 314 312 309 306 303 300 298 295 293 291 288 285 283 281 279
315 312 310 309 308 307 305 305 304 305 305 305 304 303 302 300 299 297 296 295 294 293 294 294 295 294 292 290 288 291 299 310 318 320 319 315 312 312 312 310 309 308 309 307 303 301 301 303 308 312 313 312 313 315 317 319 320 321 321 322 322 324 326 326 325 323 323 322 321 320 319 317 315 312 310 307 305 302 299 296 294 290 287 284 282 280
311 309 308 308 307 307 306 306 306 307 306 306 305 305 304 302 301 301 300 299 298 297 295 294 293 293 292 291 292 297 305 314 320 322 320 315 312 311 310 309 307 307 307 306 303 298 296 298 303 308 311 312 312 313 315 317 318 319 319 318 318 320 323 324 323 321 321 322 321 321 321 320 318 316 314 311 309 306 304 301 298 294 290 287 286 285
308 308 308 308 308 307 307 307 307 307 307 307 307 307 306 306 305 305 304 303 301 298 295 293 291 291 293 294 297 303 311 317 321 322 319 314 310 309 309 307 306 305 305 304 303 300 297 298 300 303 306 309 311 312 313 315 316 317 317 316 315 317 319 321 321 321 321 321 321 322 322 323 322 320 317 315 313 311 308 305 302 298 294 291 289 287
307 308 309 309 309 309 309 309 309 309 310 310 310 310 310 309 308 307 305 303 301 298 296 294 292 292 292 294 298 304 312 318 321 320 318 315 312 310 308 306 305 305 304 303 302 300 298 298 299 300 302 305 308 311 312 314 315 315 315 315 314 315 317 318 319 319 320 320 320 321 322 323 322 321 319 318 316 314 312 308 305 302 298 294 289 285
308 309 309 310 310 310 311 312 312 312 312 313 313 312 311 310 308 306 305 303 300 298 296 295 295 295 296 297 300 305 313 318 320 320 320 318 315 312 308 306 305 305 302 301 301 300 299 299 299 300 300 301 304 308 312 315 315 314 314 315 315 315 316 317 318 317 317 318 319 320 321 321 321 320 320 320 318 317 314 311 307 304 301 297 292 285
308 309 310 311 312 313 313 314 315 315 314 314 314 314 313 311 309 307 306 304 301 300 298 297 297 298 301 303 306 309 313 317 319 321 322 321 318 314 309 308 308 306 303 300 300 300 299 298 298 299 298 297 299 303 309 314 316 315 315 316 316 316 316 318 318 317 316 316 317 318 319 319 318 318 318 319 319 317 314 312 309 307 304 301 297 293
309 311 313 314 315 315 316 316 317 317 316 316 316 316 315 314 312 311 309 307 305 303 302 302 302 303 305 307 309 311 313 316 319 323 325 325 323 319 314 311 310 310 307 304 302 300 298 295 294 295 296 297 299 302 307 310 312 314 316 317 317 317 317 318 318 316 314 313 314 315 316 316 315 315 315 316 317 316 314 312 311 310 308 305 302 298
312 314 316 316 317 317 317 317 318 318 318 318 319 319 318 318 317 316 315 313 312 311 310 309 309 310 310 311 312 313 315 319 323 327 330 331 330 326 320 314 312 312 312 309 305 301 297 294 292 292 294 296 300 304 308 310 311 312 315 317 318 319 319 318 316 314 312 311 311 312 314 315 314 314 313 314 314 313 313 313 312 311 310 308 305 302
316 317 317 317 318 318 318 318 319 319 320 321 321 322 322 323 322 322 322 321 320 319 318 317 316 314 314 314 314 316 319 324 329 332 335 335 334 330 325 318 315 315 315 312 309 304 299 295 293 293 294 295 297 301 306 309 311 312 312 312 312 315 319 318 316 314 313 312 312 312 313 314 314 313 312 312 311 310 310 310 310 310 309 307 305 303
317 317 317 317 318 318 318 318 320 321 322 323 325 326 327 328 328 329 328 327 326 325 324 322 319 317 315 315 317 320 324 329 332 335 337 337 336 333 328 323 320 318 316 313 310 306 302 298 296 296 296 297 298 301 303 307 310 311 309 307 307 311 316 317 317 316 315 314 313 313 312 312 311 311 310 309 308 308 308 307 307 307 306 305 302 300
317 317 316 317 317 317 318 319 321 323 325 327 328 330 331 333 334 334 333 332 331 329 327 325 322 319 317 317 319 323 327 331 334 336 337 338 337 335 331 327 324 321 318 314 310 307 305 302 299 298 298 299 299 299 301 306 310 311 309 307 308 311 314 316 317 317 314 312 312 311 311 310 309 309 309 308 308 307 308 306 304 303 302 301 300 299
317 316 316 317 316 318 319 321 323 325 328 329 331 333 335 336 337 336 334 332 331 329 327 325 322 320 319 320 322 326 329 331 333 335 337 337 337 336 333 330 327 324 320 315 310 308 308 305 302 300 301 302 301 298 298 302 307 310 310 309 308 306 305 309 314 315 312 311 311 312 311 311 311 310 309 308 307 307 307 306 304 303 303 301 300 299
317 317 316 316 317 319 321 323 325 327 330 332 334 336 337 338 337 335 333 331 328 326 324 322 321 320 321 323 325 328 329 331 332 334 336 336 337 336 334 332 329 326 322 317 311 309 309 307 305 304 305 304 301 298 298 301 303 307 309 311 308 303 300 304 309 312 312 312 313 313 313 313 312 310 309 307 306 306 306 306 305 305 305 304 302 300
317 315 314 315 317 319 321 323 325 328 331 333 336 337 338 337 336 334 331 328 326 324 323 322 323 323 324 325 327 329 330 331 332 333 335 336 336 336 334 332 330 327 323 319 315 311 308 306 306 308 309 305 301 298 298 299 302 305 308 310 309 306 304 306 308 308 308 310 311 313 314 314 312 309 306 305 305 305 304 304 303 303 304 303 302 301
314 313 313 315 317 319 321 323 325 328 331 334 335 336 336 335 334 331 328 326 325 323 322 322 324 325 325 326 328 330 331 332 333 334 335 336 336 335 334 332 330 327 324 320 318 315 312 309 309 310 309 306 303 301 300 301 301 303 306 309 309 307 307 307 307 307 308 308 309 312 314 315 312 307 304 304 304 304 303 302 300 300 300 301 300 299
311 312 312 315 317 319 320 322 325 329 331 333 333 334 334 333 331 329 327 325 324 323 323 323 324 324 324 326 328 330 331 332 333 334 335 336 336 335 333 332 331 329 325 322 320 318 317 316 315 312 308 304 301 302 304 305 304 303 305 307 307 306 305 306 308 309 309 308 309 311 313 312 309 305 304 303 303 302 301 300 299 299 298 298 297 297
312 312 313 315 317 319 321 323 325 327 330 330 330 330 331 331 330 328 327 325 324 324 324 324 324 324 325 327 330 331 331 330 332 334 334 335 336 335 334 333 332 330 328 326 324 321 320 319 318 315 310 304 301 301 305 308 307 306 306 306 306 305 304 306 308 309 309 308 309 310 311 308 305 303 303 302 301 300 299 299 298 298 297 296 295 294
314 313 314 316 318 319 320 321 323 325 327 327 327 327 328 328 328 328 327 326 325 324 324 324 324 325 325 327 331 333 332 331 331 333 333 333 334 335 334 334 334 333 331 330 328 326 324 322 319 316 312 308 304 303 305 308 309 308 306 305 303 302 303 304 306 307 307 307 307 308 308 306 304 304 303 300 299 298 298 298 298 297 296 295 294 293
314 314 315 315 317 317 318 319 321 322 323 323 324 324 325 326 327 327 326 326 325 325 325 325 325 326 326 328 330 331 331 330 330 331 331 331 332 332 332 333 334 333 332 331 330 328 326 323 320 317 315 311 307 304 304 306 307 307 304 302 301 301 300 301 303 305 306 306 306 306 306 305 304 304 302 299 297 296 297 297 296 295 295 295 293 292
313 314 314 315 315 315 316 317 318 319 319 320 321 322 324 325 326 326 326 326 326 326 326 327 328 327 326 328 329 330 330 329 328 328 329 330 330 330 329 330 330 329 327 326 325 324 322 319 317 316 316 315 311 305 301 302 303 303 301 300 301 300 299 300 302 304 305 305 305 305 305 304 303 302 300 297 295 294 295 295 294 294 294 294 292 291